sat.trackr.live / text

‹ back to catalog

KUIPER-00641

NORAD 69787 · 2026-151AA

PAYLOAD ACTIVE UNKNOWN

§ Identity

Operator
Country
US
Launch date
2026-07-02
Launch site
AFETR
Launch vehicle
Mass (kg)
RCS (m²)

External: N2YO · Heavens-Above · Gunter

§ Orbital elements

Epoch: 2026-09-20T04:00:03.000096Z

Period
97.30 min
Inclination
51.8984°
Eccentricity
0.0002320
Mean motion
14.79919588 rev/d
Perigee alt
628.0 km
Apogee alt
631.2 km
Semi-major
7,007.7 km
B*
-1.9814e-3
RAAN
225.6787°
Arg perigee
125.2350°
Mean anomaly
185.9653°
Rev number
532

§ Raw data

KUIPER-006411 69787U 26151AA  26263.16670139 -.00015288  00000+0 -19814-2 0  99942 69787  51.8984 225.6787 0002320 125.2350 185.9653 14.79919588  5324

JSON: /api/v1/satellites/69787 · /tle

For live sub-satellite position, see the globe view (requires WebGL).

§ Visibility from observer

Set your observer location to see the next 7 days of passes ≥ 10°. The values pass through the URL so the page stays shareable.

No JS? Fill the form by hand. The geolocation button needs JavaScript.